Probability
0 0 0 0 0 0 0 0 0 0 0 0 0 0 0 0 0 0 0 0 0 0 0 0 0 0 0 0 0 0 0 0 0 1 3 7 8 5
0 0 0 0 0 0 0 0 0 0 0 0 0 0 0 0 0 0 0 0 0 0 0 0 0 0 0 0 0 0 0 0 0 0 1 3 3 2
0 0 0 0 0 0 0 0 0 0 0 0 0 0 0 0 0 0 0 0 0 0 0 0 0 0 0 0 0 0 0 0 0 0 0 0 0 0
0 0 0 0 0 0 0 0 0 0 0 0 0 0 0 0 0 0 0 0 0 0 0 0 0 0 0 0 0 0 0 0 0 0 0 0 0 0
0 0 0 0 0 0 0 0 0 0 0 0 0 0 0 0 0 0 0 0 0 0 0 0 0 0 0 0 0 0 0 0 0 0 0 0 0 0
0 0 0 0 0 0 0 0 0 0 0 0 0 0 0 0 0 0 0 0 0 0 0 0 0 0 0 0 0 0 0 0 0 0 0 0 0 0
0 0 0 0 0 0 0 0 0 0 0 0 0 0 0 0 0 0 0 0 0 0 0 0 0 0 0 0 0 0 0 0 0 0 0 0 0 0
0 0 0 0 0 0 0 0 0 0 0 0 0 0 0 0 0 0 0 0 0 0 0 0 0 0 0 0 0 0 0 0 0 0 0 0 0 0
0 0 0 0 0 0 0 0 0 0 0 0 0 0 0 0 0 0 0 0 0 0 0 0 0 0 0 0 0 0 0 0 0 0 0 0 0 0
0 0 0 0 0 0 0 0 0 0 0 0 0 0 0 0 0 0 0 0 0 0 0 0 0 0 0 0 0 0 0 0 0 0 0 0 0 0
0 0 0 0 0 0 0 0 0 0 0 0 0 0 0 0 0 0 0 0 0 0 0 0 0 0 0 0 0 0 0 0 0 0 0 0 0 0
0 0 0 0 0 0 0 0 0 0 0 0 0 0 0 0 0 0 0 0 0 0 0 0 0 0 0 0 0 0 0 0 0 0 0 0 0 0
0 0 0 0 0 0 0 0 0 0 0 0 0 0 0 0 0 0 0 0 0 0 0 0 0 0 0 0 0 0 0 0 0 0 0 0 0 0
0 0 0 0 0 0 0 0 0 0 0 0 0 0 0 0 0 0 0 0 0 0 0 0 0 0 0 0 0 0 0 0 0 0 0 0 0 0
0 0 0 0 0 0 0 0 0 0 0 0 0 0 0 0 0 0 0 0 0 0 0 0 0 0 0 0 0 0 0 0 0 0 0 0 0 0
0 0 0 0 0 0 0 0 0 0 0 0 0 0 0 0 0 0 0 0 0 0 0 0 0 0 0 0 0 0 0 0 0 0 0 0 0 0
0 0 0 0 0 0 0 0 0 0 0 0 0 0 0 0 0 0 0 0 0 0 0 0 0 0 0 0 0 0 0 0 0 0 0 0 0 0
0 0 0 0 0 0 0 0 0 0 0 0 0 0 0 0 0 0 0 0 0 0 0 0 0 0 0 0 0 0 0 0 0 0 0 0 0 0
0 0 0 0 0 0 0 0 0 0 0 0 0 0 0 0 0 0 0 0 0 0 0 0 0 0 0 0 0 0 0 0 0 0 0 0 0 0
0 0 0 0 0 0 0 0 0 0 0 0 0 0 0 0 0 0 0 0 0 0 0 0 0 0 0 0 0 0 0 0 0 0 0 0 0 0
0 0 0 0 0 0 0 0 0 0 0 0 0 0 0 0 0 0 0 0 0 0 0 0 0 0 0 0 0 0 0 0 0 0 0 0 0 0
0 0 0 0 0 0 0 0 0 0 0 0 0 0 0 0 0 0 0 0 0 0 0 0 0 0 0 0 0 0 0 0 0 0 0 0 0 0
0 0 0 0 0 0 0 0 0 0 0 0 0 0 0 0 0 0 0 0 0 0 0 0 0 0 0 0 0 0 0 0 0 0 0 0 0 0
Wind_Speed
5 6 7 8 6 6 6 7 8 9 11 12 8 5 5 6 9 9 7 11 15 15 16 16 16 13 12 11 12 12 12 13 14 16 17 18 20 19
4 7 8 7 7 7 7 6 7 8 11 11 9 9 8 7 9 9 7 13 12 15 15 16 15 15 13 13 14 15 16 16 16 17 19 20 21 21
7 8 10 10 9 8 7 6 6 7 8 9 8 8 9 9 7 7 7 6 7 8 6 7 4 6 8 11 13 15 17 18 19 20 21 21 22 21
9 9 11 10 11 10 8 8 7 7 7 8 9 8 9 8 7 7 6 5 5 1 2 4 5 8 10 11 14 17 19 20 22 23 22 21 22 22
8 10 12 12 12 10 9 9 8 7 7 7 9 7 6 5 7 7 6 5 4 2 2 3 6 9 11 12 15 17 18 19 22 24 23 22 20 19
9 11 12 12 12 12 10 10 8 7 7 8 8 8 10 8 7 7 5 4 3 2 1 3 7 9 12 15 17 19 19 20 22 24 24 23 19 17
11 11 11 15 18 15 11 9 7 7 6 7 9 9 8 8 7 5 5 3 2 1 1 2 4 6 9 14 18 22 26 25 25 26 25 25 22 16
10 11 12 14 15 16 17 15 13 11 9 9 10 10 11 9 7 6 3 3 3 1 1 2 5 6 8 10 21 29 30 28 32 31 27 25 22 15
10 11 10 11 12 11 13 15 16 17 17 14 13 14 13 10 7 5 4 3 2 1 0 1 4 6 8 12 28 34 18 12 27 30 27 23 18 15
11 10 10 12 12 12 10 11 11 12 14 13 13 14 12 9 6 4 4 5 4 2 1 1 4 5 8 13 27 32 19 9 17 23 21 18 15 13
11 10 11 10 13 15 12 11 11 10 12 15 14 12 15 9 8 7 7 6 3 1 1 1 3 4 6 11 16 26 27 26 23 21 21 21 20 19
9 10 14 14 16 16 11 9 9 10 9 7 6 7 8 9 9 6 6 4 3 1 1 1 3 3 3 8 11 13 16 26 30 26 21 20 22 16
8 8 9 15 16 14 10 8 9 9 6 3 3 6 7 7 7 6 5 3 2 1 1 2 3 3 3 4 8 11 11 12 15 20 21 22 24 23
8 7 8 14 15 12 10 10 9 3 2 4 4 6 7 7 7 8 8 7 6 5 6 5 4 5 4 4 5 8 10 11 11 11 11 17 23 26
9 13 14 13 11 9 11 10 5 4 5 6 6 7 7 7 7 8 8 9 11 10 10 11 7 6 6 6 5 6 9 11 10 10 10 10 12 11
11 12 14 11 10 11 9 7 5 7 7 7 7 7 7 6 6 6 7 8 8 8 10 9 7 9 10 11 10 10 10 8 9 10 11 11 11 9
11 7 7 8 8 8 7 7 7 8 8 7 7 7 6 7 7 6 7 7 6 8 9 10 12 13 13 12 12 11 11 11 10 10 11 12 12 10
8 7 8 9 8 7 7 7 7 8 7 7 6 7 7 7 6 6 7 7 7 8 8 7 9 10 12 17 16 10 11 11 10 10 10 10 11 10
7 8 8 7 7 8 7 6 6 7 7 6 7 7 7 6 6 7 8 7 7 7 7 8 8 9 10 11 11 13 10 10 11 10 9 10 11 12
8 8 8 8 7 7 7 6 6 7 7 6 7 7 7 6 7 8 7 7 8 9 8 8 9 9 10 10 7 10 13 10 10 10 10 11 15 17
8 8 8 8 7 6 6 7 7 6 6 6 6 7 7 6 6 7 7 9 9 10 9 8 8 9 10 10 9 9 12 14 12 9 10 11 12 12
9 8 8 8 7 6 6 6 6 6 7 7 7 6 5 5 5 7 7 8 8 9 9 8 7 7 9 10 10 10 9 9 11 14 12 9 7 8
9 8 8 8 7 6 5 5 6 6 6 7 6 4 4 4 4 5 7 7 7 8 9 9 9 10 10 11 11 10 10 9 9 12 14 16 20 21
Wind_Direction
295 299 297 288 277 269 262 258 267 285 292 288 283 251 271 275 279 287 281 284 287 286 282 275 263 245 249 256 260 260 261 260 259 260 258 254 249 242
296 302 299 298 294 279 259 248 239 254 274 282 277 277 279 272 277 280 284 295 292 296 295 283 251 234 248 256 259 257 252 248 247 248 249 249 247 243
298 300 298 301 295 285 265 252 246 246 265 276 275 278 273 267 272 272 281 280 286 298 353 8 355 312 294 285 279 272 264 256 249 243 241 242 243 242
296 301 299 298 291 285 275 270 261 252 255 273 282 277 264 259 260 265 266 268 261 196 339 328 317 308 300 290 278 269 261 253 247 242 238 236 235 234
294 296 294 290 282 280 277 275 270 261 259 271 284 288 282 278 268 260 252 239 215 211 273 310 315 309 299 292 283 272 259 247 241 240 236 233 232 228
296 291 286 280 275 272 272 274 280 277 279 283 288 290 288 283 267 265 258 190 185 176 248 333 334 323 314 306 296 282 264 244 231 228 230 232 231 227
299 295 290 289 288 282 282 282 282 280 285 286 283 281 278 277 261 252 248 157 166 185 232 335 342 331 322 312 300 287 275 255 230 218 220 225 228 223
300 298 296 298 296 295 297 300 297 292 283 278 279 277 276 268 247 236 189 146 180 180 260 347 338 316 313 303 304 298 280 243 212 206 210 213 217 215
295 292 297 299 297 289 290 298 296 284 277 279 271 267 269 263 235 219 173 157 131 111 26 323 312 311 324 323 329 328 312 228 190 190 196 196 200 206
292 289 291 292 289 288 293 291 284 276 273 270 261 260 255 258 220 187 140 111 94 75 28 288 311 314 333 340 344 351 12 74 149 163 170 169 167 167
296 296 292 292 294 295 294 290 285 284 283 285 280 267 246 210 153 127 128 132 114 89 314 299 321 307 337 349 352 6 32 57 80 106 121 127 125 116
303 302 303 301 301 302 301 292 289 294 305 322 345 50 76 104 115 119 132 123 110 142 245 12 343 336 0 353 355 7 26 49 59 65 80 99 103 97
305 304 302 303 307 309 305 292 281 287 302 2 22 61 68 72 75 76 78 87 101 98 80 68 3 20 43 8 3 14 25 42 58 59 60 76 92 99
306 303 307 315 318 321 316 306 297 289 82 72 60 66 68 66 69 71 73 72 72 78 65 68 50 42 50 64 33 24 33 37 49 60 61 66 73 80
321 327 328 325 336 339 334 344 16 62 79 80 76 72 69 73 78 82 80 78 73 73 75 75 72 66 64 66 58 42 46 37 39 51 53 55 64 73
330 331 336 350 1 355 353 10 51 73 77 81 80 78 72 74 74 74 80 89 92 86 94 100 81 71 74 73 67 61 58 57 43 47 55 62 67 62
334 338 357 8 10 7 16 44 58 67 74 73 79 81 76 77 71 68 87 92 76 82 82 74 71 70 73 75 76 67 64 62 59 62 65 69 67 73
347 351 5 15 17 13 26 55 62 71 74 74 74 72 80 81 77 77 81 68 66 76 85 89 93 87 78 66 57 67 67 73 73 72 73 82 86 91
358 353 2 13 19 20 26 53 65 73 73 71 74 78 86 77 75 85 81 66 69 71 79 91 92 85 84 82 50 38 74 87 88 86 87 92 95 96
1 356 1 7 24 27 23 35 51 71 74 72 75 74 80 66 70 76 83 84 79 76 71 73 75 74 74 80 74 38 40 76 86 88 88 86 83 83
359 358 356 357 12 25 20 29 46 69 79 83 81 76 75 71 74 76 83 79 82 84 78 71 75 90 96 91 81 57 51 59 70 86 95 95 95 95
2 359 358 359 5 16 26 38 51 57 57 77 87 87 67 66 65 74 85 88 89 92 93 88 82 82 84 90 94 97 92 76 64 58 54 60 93 114
2 1 1 0 2 8 23 36 51 58 66 81 90 81 67 73 73 79 85 92 97 97 95 89 81 80 85 98 106 104 88 75 68 60 52 61 80 87